TimeCST,TemperatureF,Dew PointF,Humidity,Sea Level PressureIn,VisibilityMPH,Wind Direction,Wind SpeedMPH,Gust SpeedMPH,PrecipitationIn,Events,Conditions,WindDirDegrees,DateUTC
12:13 AM,37.4,21.2,52,30.02,10.0,SSE,5.8,16.1,N/A,,Scattered Clouds,160,2012-12-06 06:13:00
12:32 AM,37.4,21.2,52,30.01,10.0,SSE,6.9,17.3,N/A,,Mostly Cloudy,160,2012-12-06 06:32:00
12:53 AM,37.4,23.0,56,30.00,10.0,SSE,9.2,-,N/A,,Mostly Cloudy,160,2012-12-06 06:53:00
1:13 AM,37.4,23.0,56,29.99,10.0,SSE,9.2,-,N/A,,Mostly Cloudy,150,2012-12-06 07:13:00
1:32 AM,37.4,23.0,56,29.97,10.0,SSE,8.1,17.3,N/A,,Scattered Clouds,150,2012-12-06 07:32:00
1:53 AM,37.4,24.8,60,29.98,10.0,SSE,8.1,-,N/A,,Mostly Cloudy,160,2012-12-06 07:53:00
2:13 AM,37.4,26.6,65,29.96,10.0,SSE,9.2,-,N/A,,Mostly Cloudy,150,2012-12-06 08:13:00
2:32 AM,37.4,26.6,65,29.94,10.0,SSE,12.7,-,N/A,,Scattered Clouds,150,2012-12-06 08:32:00
2:53 AM,39.2,26.6,61,29.94,10.0,SSE,8.1,17.3,N/A,,Mostly Cloudy,160,2012-12-06 08:53:00
3:13 AM,39.2,28.4,65,29.94,10.0,South,6.9,17.3,N/A,,Overcast,170,2012-12-06 09:13:00
3:32 AM,39.2,28.4,65,29.92,10.0,SSE,10.4,18.4,N/A,,Overcast,160,2012-12-06 09:32:00
3:53 AM,41.0,28.4,61,29.92,10.0,SSE,6.9,-,N/A,,Mostly Cloudy,150,2012-12-06 09:53:00
4:13 AM,41.0,28.4,61,29.91,10.0,South,5.8,-,N/A,,Scattered Clouds,190,2012-12-06 10:13:00
4:33 AM,41.0,28.4,61,29.90,10.0,South,8.1,18.4,N/A,,Mostly Cloudy,180,2012-12-06 10:33:00
4:53 AM,41.0,28.4,61,29.89,10.0,South,8.1,-,N/A,,Mostly Cloudy,190,2012-12-06 10:53:00
5:13 AM,41.0,30.2,65,29.89,10.0,South,9.2,-,N/A,,Drizzle,190,2012-12-06 11:13:00
5:33 AM,41.0,28.4,61,29.89,10.0,South,6.9,-,N/A,,Mostly Cloudy,180,2012-12-06 11:33:00
5:53 AM,41.0,28.4,61,29.90,10.0,SSW,6.9,11.5,N/A,,Mostly Cloudy,200,2012-12-06 11:53:00
6:13 AM,41.0,28.4,61,29.90,10.0,South,5.8,-,N/A,,Scattered Clouds,180,2012-12-06 12:13:00
6:33 AM,41.0,30.2,65,29.90,10.0,Calm,Calm,-,N/A,,Clear,0,2012-12-06 12:33:00
6:53 AM,41.0,30.2,65,29.90,10.0,Calm,Calm,-,N/A,,Scattered Clouds,0,2012-12-06 12:53:00
7:13 AM,41.0,30.2,65,29.90,10.0,Calm,Calm,-,N/A,,Overcast,0,2012-12-06 13:13:00
7:33 AM,41.0,30.2,65,29.90,10.0,Calm,Calm,-,N/A,,Overcast,0,2012-12-06 13:33:00
7:53 AM,39.2,32.0,75,29.89,7.0,South,4.6,-,N/A,Rain,Light Rain,170,2012-12-06 13:53:00
8:13 AM,39.2,32.0,75,29.89,7.0,Calm,Calm,-,0.02,Rain,Light Rain,0,2012-12-06 14:13:00
8:33 AM,37.4,32.0,81,29.89,10.0,SE,3.5,-,0.04,Rain,Light Rain,130,2012-12-06 14:33:00
8:53 AM,39.2,33.8,81,29.89,7.0,SSE,3.5,-,0.06,Rain,Rain,160,2012-12-06 14:53:00
9:13 AM,39.2,33.8,81,29.87,4.0,SSE,4.6,-,0.05,Rain,Rain,160,2012-12-06 15:13:00
9:33 AM,39.2,33.8,81,29.87,7.0,South,3.5,-,0.08,Rain,Light Rain,170,2012-12-06 15:33:00
9:53 AM,39.2,33.8,81,29.87,10.0,SSW,6.9,-,0.08,,Light Drizzle,210,2012-12-06 15:53:00
10:13 AM,41.0,33.8,76,29.88,10.0,SW,8.1,-,N/A,,Mostly Cloudy,220,2012-12-06 16:13:00
10:33 AM,41.0,33.8,76,29.87,5.0,SW,9.2,-,N/A,,Haze,220,2012-12-06 16:33:00
10:53 AM,41.0,33.8,76,29.86,10.0,SW,8.1,-,N/A,,Scattered Clouds,220,2012-12-06 16:53:00
11:13 AM,41.0,33.8,76,29.85,10.0,SSW,6.9,-,N/A,,Scattered Clouds,210,2012-12-06 17:13:00
11:33 AM,42.8,33.8,70,29.85,10.0,WSW,5.8,-,N/A,,Scattered Clouds,250,2012-12-06 17:33:00
11:53 AM,42.8,35.6,76,29.84,10.0,WSW,4.6,-,N/A,,Scattered Clouds,240,2012-12-06 17:53:00
12:13 PM,42.8,35.6,76,29.83,10.0,WSW,4.6,-,N/A,,Clear,250,2012-12-06 18:13:00
12:33 PM,44.6,35.6,71,29.82,10.0,SW,6.9,-,N/A,,Clear,230,2012-12-06 18:33:00
12:53 PM,44.6,35.6,71,29.83,10.0,WSW,8.1,-,N/A,,Clear,240,2012-12-06 18:53:00
1:13 PM,44.6,35.6,71,29.82,10.0,WSW,10.4,17.3,N/A,,Clear,240,2012-12-06 19:13:00
1:33 PM,44.6,35.6,71,29.82,10.0,WSW,5.8,-,N/A,,Clear,250,2012-12-06 19:33:00
1:53 PM,46.4,37.4,71,29.83,10.0,West,6.9,-,N/A,,Scattered Clouds,270,2012-12-06 19:53:00
2:13 PM,46.4,37.4,71,29.82,10.0,West,8.1,-,N/A,,Clear,270,2012-12-06 20:13:00
2:33 PM,46.4,37.4,71,29.82,10.0,West,8.1,-,N/A,,Clear,280,2012-12-06 20:33:00
2:53 PM,44.6,33.8,66,29.84,10.0,West,10.4,-,N/A,,Clear,280,2012-12-06 20:53:00
3:13 PM,44.6,33.8,66,29.85,10.0,WNW,8.1,-,N/A,,Clear,290,2012-12-06 21:13:00
3:33 PM,42.8,32.0,66,29.86,10.0,WNW,9.2,-,N/A,,Scattered Clouds,300,2012-12-06 21:33:00
3:53 PM,41.0,32.0,70,29.86,10.0,WNW,8.1,-,N/A,,Scattered Clouds,290,2012-12-06 21:53:00
4:13 PM,41.0,32.0,70,29.87,10.0,WNW,5.8,-,N/A,,Mostly Cloudy,290,2012-12-06 22:13:00
4:33 PM,41.0,32.0,70,29.88,10.0,WNW,5.8,-,N/A,,Scattered Clouds,290,2012-12-06 22:33:00
4:53 PM,41.0,32.0,70,29.88,10.0,WNW,6.9,-,N/A,,Scattered Clouds,290,2012-12-06 22:53:00
5:13 PM,41.0,32.0,70,29.88,10.0,WNW,6.9,-,N/A,,Scattered Clouds,290,2012-12-06 23:13:00
5:33 PM,39.2,32.0,75,29.89,10.0,WNW,5.8,-,N/A,,Mostly Cloudy,290,2012-12-06 23:33:00
5:53 PM,39.2,30.2,70,29.90,10.0,WNW,8.1,-,N/A,,Scattered Clouds,290,2012-12-06 23:53:00
6:13 PM,39.2,30.2,70,29.90,10.0,WNW,6.9,-,N/A,,Scattered Clouds,300,2012-12-07 00:13:00
6:33 PM,39.2,30.2,70,29.91,10.0,WNW,6.9,-,N/A,,Scattered Clouds,300,2012-12-07 00:33:00
7:13 PM,37.4,30.2,75,29.92,10.0,WNW,5.8,-,N/A,,Mostly Cloudy,300,2012-12-07 01:13:00
7:33 PM,37.4,28.4,70,29.92,10.0,WNW,5.8,-,N/A,,Mostly Cloudy,300,2012-12-07 01:33:00
7:53 PM,37.4,28.4,70,29.93,10.0,WNW,6.9,-,N/A,,Scattered Clouds,300,2012-12-07 01:53:00
8:33 PM,37.4,28.4,70,29.93,10.0,WNW,8.1,-,N/A,,Overcast,300,2012-12-07 02:33:00
8:53 PM,37.4,28.4,70,29.94,10.0,WNW,8.1,-,N/A,,Mostly Cloudy,300,2012-12-07 02:53:00
9:13 PM,37.4,28.4,70,29.94,10.0,WNW,8.1,-,N/A,,Mostly Cloudy,300,2012-12-07 03:13:00
9:33 PM,37.4,28.4,70,29.94,10.0,WNW,8.1,-,N/A,,Overcast,300,2012-12-07 03:33:00
9:52 PM,37.4,28.4,70,29.95,10.0,WNW,8.1,-,N/A,,Overcast,300,2012-12-07 03:52:00
10:13 PM,37.4,28.4,70,29.94,10.0,NW,8.1,-,N/A,,Mostly Cloudy,310,2012-12-07 04:13:00
10:33 PM,37.4,28.4,70,29.94,10.0,WNW,5.8,-,N/A,,Mostly Cloudy,300,2012-12-07 04:33:00
10:53 PM,35.6,26.6,70,29.94,10.0,NW,6.9,-,N/A,,Mostly Cloudy,320,2012-12-07 04:53:00
11:13 PM,35.6,26.6,70,29.96,10.0,NW,5.8,-,N/A,,Scattered Clouds,310,2012-12-07 05:13:00
11:33 PM,33.8,26.6,75,29.97,10.0,WNW,5.8,-,N/A,,Scattered Clouds,300,2012-12-07 05:33:00
11:53 PM,33.8,26.6,75,29.96,10.0,NW,9.2,-,N/A,,Scattered Clouds,320,2012-12-07 05:53:00